Regional Weather Roundup
Issued by NWS

Home | Current Version | Previous Version | Graphics & Text | Print | Product List | Glossary On
Versions: 1 2 3 4 5 6 7 8 9 10 11 12 13 14 15 16 17 18 19 20 21 22 23 24 25 26 27 28 29 30 31 32 33 34 35 36 37 38 39 40 41 42 43 44 45 46 47 48 49 50
000
ASUS45 KCYS 261610
RWRWY

WYOMING REGIONAL WEATHER ROUNDUP
NATIONAL WEATHER SERVICE CHEYENNE WY
1000 AM MDT THU APR 26 2018

NOTE:  "FAIR" INDICATES FEW OR NO CLOUDS BELOW 12,000 FEET
WITH NO SIGNIFICANT WEATHER AND/OR OBSTRUCTIONS TO VISIBILITY.

WYZ001-261700-
YELLOWSTONE NATIONAL PARK

CITY           SKY/WX    TMP DP  RH WIND       PRES   REMARKS
LK YELLOWSTONE   N/A     32  25  75 VRB3      30.38R
W YELLOWSTONE  NOT AVBL

$$
WYZ002>013-054>058-071-098>099-261700-
NORTHERN WYOMING

CITY           SKY/WX    TMP DP  RH WIND       PRES   REMARKS
JACKSON        FAIR      45  26  47 N10       30.31F
CODY           FAIR      49  32  52 SW10      30.30S
GREYBULL       FAIR      50  35  56 E6        30.30F
WORLAND        FAIR      49  32  52 CALM      30.31S
SHERIDAN       FAIR      54  33  45 NW6       30.26F
BUFFALO        FAIR      50  29  44 CALM      30.28F
GILLETTE       FAIR      51  32  48 NW12      30.27S
HULETT         FAIR      50  32  50 NW7       30.27R
NEWCASTLE      FAIR      50  30  46 NW12G18   30.28S

$$
WYZ014>020-022>026-101>103-261700-
CENTRAL WYOMING

CITY           SKY/WX    TMP DP  RH WIND       PRES   REMARKS
BIG PINEY      FAIR      46  24  42 S10       30.34S
PINEDALE       FAIR      43  28  56 SE8       30.35S
DUBOIS         FAIR      41  28  60 NW3       30.31S
LANDER         FAIR      48  31  51 VRB6      30.31R
RIVERTON       FAIR      46  30  53 VRB6      30.32S
CASPER         FAIR      44  33  65 SW5       30.31S
DOUGLAS        PTSUNNY   50  32  50 NW10      30.30S

$$
WYZ021-027>030-104>119-261700-
SOUTHERN WYOMING

CITY           SKY/WX    TMP DP  RH WIND       PRES   REMARKS
EVANSTON       FAIR      50  25  37 E9        30.30R
KEMMERER       FAIR      45  28  53 E10       30.34R
FORT BRIDGER   FAIR      49  27  42 E3        30.35S
ROCK SPRINGS   FAIR      46  24  42 E10G16    30.33F
DIXON          FAIR      49  20  31 N9        30.34R
RAWLINS        FAIR      43  25  49 VRB6      30.33S
SARATOGA       FAIR      43  19  39 NE3       30.34S
LARAMIE        PTSUNNY   40  27  59 N9G17     30.30S WCI  34
CHEYENNE       PTSUNNY   45  28  51 N20G25    30.28R
TORRINGTON     FAIR      54  31  41 N17G23    30.25S
PINE BLUFFS    FAIR      48  30  49 N22G28    30.27R

$$



USA.gov is the U.S. government's official web portal to all federal, state and local government web resources and services.